Hermes

operational
NORAD ID: 8585 Int'l Des: 1976-004 Owner: CRC Country: CA
HEOCIRCULAR

Über Hermes

Beschreibung wird geladen...

Live-Position

3D-Globus wird geladen...

Nächste Überflüge

Höhenverlauf

Altitude vs Time

uPlot chart will show altitude changes over time

Zweizeiliger Elementsatz

1 8585U 76004A 26061.18399919 -.00000156 00000-0 00000+0 0 9999
2 8585 4.2059 273.5591 0011630 291.8960 284.6808 1.00202460121225
Epoch: 2. März 2026 • Age: 31 hours

Aktueller Status

Höhe 35767.2 km
Geschwindigkeit 3.08 km/s
Subsatellitenpunkt -4.04°S, 96.43°W
Typ other

Große Konstellationen

Loading constellations...